Location: Lhota
(50.0887°N, 14.0116°E)
Time: 21:41:50
(UTC+00:00)

Nadezhda 3 Rocket - Visible Passes

Search period start: 20 April 2026 00:00
Search period end: 30 April 2026 00:00
Orbit: 955 x 999 km, 82.9° (Epoch: 20 April)

Date Brightness Start Highest point End Pass type
(mag) Time Alt. Az. Time Alt. Az. Time Alt. Az.
20 Apr 5.3 18:34:09 10° NNW 18:39:55 44° W 18:45:40 10° SSW visible
21 Apr 6.3 19:00:27 10° NNW 19:05:23 26° W 19:10:19 10° SW visible
22 Apr 6.8 19:27:20 10° NW 19:30:41 15° WNW 19:34:01 10° WSW visible
25 Apr 6.8 18:58:56 10° NW 19:02:45 17° WNW 19:06:35 10° WSW visible
29 Apr 7.4 18:58:29 10° WNW 19:00:01 11° WNW 19:01:33 10° W visible
